Arbor Vitae, WI

2:55 AM CST on November 21, 2017 (GMT -0600)
Lakeland-Lee Memorial

Weather History for KARV - February, 2013

Change the Weather History Date:

Wednesday, February 20, 2013

  Actual Average Record
Temperature  
Mean Temperature 11 °F -  
Max Temperature 19 °F 29 °F 59 °F (1930)
Min Temperature 3 °F 6 °F -33 °F (1929)
Degree Days  
Heating Degree Days 54    
Moisture  
Dew Point 6 °F    
Average Humidity 74    
Maximum Humidity 85    
Minimum Humidity 63    
Precipitation  
Precipitation 0.00 in - - ()
Sea Level Pressure  
Sea Level Pressure 30.26 in    
Wind  
Wind Speed 13 mph (North)    
Max Wind Speed 20 mph    
Max Gust Speed 28 mph    
Visibility 7 miles    
Events Snow    
Averages and records for this station are not official NWS values.
T = Trace of Precipitation, MM = Missing Value Source: NWS Daily Summary

Daily Weather History Graph

Daily Weather History Graph

Search for Another Location

Airport or City:

Trip Planner

Search our weather history database for the weather conditions in past years. The results will help you decide how hot, cold, wet, or windy it might be!

Date:

Astronomy

Feb. 20, 2013 Rise Set
Actual Time 6:52 AM CST 5:33 PM CST
Civil Twilight 6:22 AM CST 6:03 PM CST
Nautical Twilight 5:47 AM CST 6:38 PM CST
Astronomical Twilight 5:13 AM CST 7:12 PM CST
Moon 12:44 PM CST (2/20) 3:22 AM CST (2/20)
Length of Visible Light 11h 40m
Length of Day
10h 40m
Waxing Gibbous, 76% of the Moon is Illuminated
Feb 20
Waxing Gibbous
Feb 25
Full
Mar 4
Last Quarter
Mar 11
New
Mar 19
First Quarter

Hourly Weather History & Observations

Time (CST) Temp. Windchill Dew Point Humidity Pressure Visibility Wind Dir Wind Speed Gust Speed Precip Events Conditions
12:15 AM 12.2 °F -3.7 °F 5.0 °F 73% 30.08 in 7.0 mi North 15.0 mph 20.7 mph N/A   Overcast
12:35 AM 12.2 °F -2.5 °F 5.0 °F 73% 30.09 in 7.0 mi NNW 12.7 mph 20.7 mph N/A   Overcast
12:55 AM 12.2 °F -2.5 °F 5.0 °F 73% 30.09 in 7.0 mi North 12.7 mph - N/A   Overcast
1:15 AM 12.2 °F -3.7 °F 5.0 °F 73% 30.10 in 10.0 mi NNW 15.0 mph 19.6 mph N/A   Overcast
1:35 AM 12.2 °F -4.8 °F 5.0 °F 73% 30.11 in 5.0 mi NNW 17.3 mph 21.9 mph N/A   Haze
1:55 AM 12.2 °F -5.8 °F 5.0 °F 73% 30.12 in 3.0 mi North 19.6 mph 27.6 mph N/A   Haze
2:15 AM 12.2 °F -4.3 °F 5.0 °F 73% 30.13 in 3.0 mi North 16.1 mph 25.3 mph N/A Snow Light Snow
2:55 AM 12.2 °F -3.1 °F 5.0 °F 73% 30.14 in 3.0 mi North 13.8 mph 23.0 mph N/A Snow Light Snow
3:15 AM 12.2 °F -3.1 °F 5.0 °F 73% 30.15 in 4.0 mi North 13.8 mph 19.6 mph N/A Snow Light Snow
3:35 AM 12.2 °F -3.7 °F 5.0 °F 73% 30.16 in 3.0 mi North 15.0 mph 23.0 mph N/A   Haze
3:55 AM 12.2 °F -2.5 °F 6.8 °F 79% 30.16 in 3.0 mi North 12.7 mph 17.3 mph N/A Snow Light Snow
4:15 AM 12.2 °F -1.8 °F 6.8 °F 79% 30.18 in 3.0 mi North 11.5 mph 16.1 mph N/A Snow Light Snow
4:35 AM 12.2 °F -3.1 °F 6.8 °F 79% 30.19 in 2.5 mi North 13.8 mph 17.3 mph N/A Snow Light Snow
4:55 AM 12.2 °F -2.5 °F 6.8 °F 79% 30.19 in 4.0 mi North 12.7 mph 18.4 mph N/A Snow Light Snow
5:15 AM 12.2 °F -3.7 °F 6.8 °F 79% 30.21 in 2.5 mi North 15.0 mph 23.0 mph N/A Snow Light Snow
5:35 AM 12.2 °F -0.2 °F 6.8 °F 79% 30.21 in 3.0 mi NNW 9.2 mph - N/A Snow Light Snow
5:55 AM 12.2 °F -3.7 °F 6.8 °F 79% 30.22 in 5.0 mi North 15.0 mph - N/A Snow Light Snow
6:15 AM 12.2 °F -0.2 °F 6.8 °F 79% 30.22 in 5.0 mi NNW 9.2 mph - N/A Snow Light Snow
6:35 AM 12.2 °F -3.1 °F 6.8 °F 79% 30.24 in 5.0 mi North 13.8 mph 18.4 mph N/A Snow Light Snow
6:55 AM 12.2 °F -4.8 °F 6.8 °F 79% 30.24 in 4.0 mi North 17.3 mph 23.0 mph N/A   Haze
7:15 AM 12.2 °F -3.7 °F 6.8 °F 79% 30.25 in 5.0 mi North 15.0 mph - N/A   Haze
7:35 AM 12.2 °F -3.1 °F 6.8 °F 79% 30.25 in 4.0 mi North 13.8 mph - N/A   Haze
7:55 AM 12.2 °F -3.1 °F 6.8 °F 79% 30.25 in 4.0 mi North 13.8 mph - N/A   Haze
8:15 AM 12.2 °F -2.5 °F 6.8 °F 79% 30.26 in 5.0 mi North 12.7 mph - N/A   Haze
8:35 AM 12.2 °F -4.8 °F 6.8 °F 79% 30.26 in 3.0 mi North 17.3 mph 20.7 mph N/A   Haze
8:55 AM 12.2 °F -4.8 °F 5.0 °F 73% 30.26 in 4.0 mi North 17.3 mph 20.7 mph N/A   Haze
9:15 AM 12.2 °F -3.7 °F 5.0 °F 73% 30.26 in 4.0 mi North 15.0 mph 18.4 mph N/A   Haze
9:35 AM 12.2 °F -3.7 °F 5.0 °F 73% 30.27 in 4.0 mi North 15.0 mph 21.9 mph N/A   Haze
9:55 AM 12.2 °F -4.3 °F 5.0 °F 73% 30.27 in 3.0 mi North 16.1 mph - N/A   Haze
10:15 AM 12.2 °F -3.7 °F 5.0 °F 73% 30.27 in 5.0 mi North 15.0 mph 21.9 mph N/A   Haze
10:35 AM 14.0 °F 0.5 °F 6.8 °F 73% 30.27 in 5.0 mi NNW 11.5 mph - N/A Snow Light Snow
10:55 AM 14.0 °F -1.4 °F 8.6 °F 79% 30.27 in 5.0 mi North 15.0 mph - N/A   Haze
11:15 AM 14.0 °F 0.5 °F 6.8 °F 73% 30.28 in 7.0 mi North 11.5 mph 20.7 mph N/A   Mostly Cloudy
11:55 AM 17.6 °F 5.0 °F 8.6 °F 68% 30.27 in 7.0 mi North 11.5 mph 16.1 mph N/A   Mostly Cloudy
12:15 PM 17.6 °F 5.0 °F 8.6 °F 68% 30.27 in 10.0 mi North 11.5 mph 16.1 mph N/A   Scattered Clouds
12:35 PM 17.6 °F 4.3 °F 8.6 °F 68% 30.27 in 10.0 mi North 12.7 mph 17.3 mph N/A   Scattered Clouds
12:55 PM 17.6 °F 3.2 °F 8.6 °F 68% 30.27 in 10.0 mi North 15.0 mph - N/A   Scattered Clouds
1:15 PM 17.6 °F 7.3 °F 8.6 °F 68% 30.27 in 10.0 mi North 8.1 mph - N/A   Scattered Clouds
1:35 PM 17.6 °F 3.2 °F 6.8 °F 63% 30.27 in 10.0 mi North 15.0 mph 19.6 mph N/A   Scattered Clouds
1:55 PM 17.6 °F 5.0 °F 6.8 °F 63% 30.27 in 10.0 mi NNW 11.5 mph 16.1 mph N/A   Scattered Clouds
2:15 PM 17.6 °F 3.2 °F 8.6 °F 68% 30.28 in 10.0 mi North 15.0 mph 18.4 mph N/A   Scattered Clouds
2:55 PM 19.4 °F 7.9 °F 8.6 °F 63% 30.29 in 10.0 mi North 10.4 mph 19.6 mph N/A   Scattered Clouds
3:15 PM 17.6 °F 7.3 °F 6.8 °F 63% 30.30 in 10.0 mi NNW 8.1 mph - N/A   Scattered Clouds
3:35 PM 19.4 °F 7.2 °F 8.6 °F 63% 30.31 in 10.0 mi NNW 11.5 mph 16.1 mph N/A   Clear
3:55 PM 17.6 °F 7.3 °F 6.8 °F 63% 30.32 in 10.0 mi NW 8.1 mph - N/A   Clear
4:15 PM 17.6 °F 6.4 °F 6.8 °F 63% 30.33 in 10.0 mi NW 9.2 mph - N/A   Scattered Clouds
4:35 PM 17.6 °F 6.4 °F 8.6 °F 68% 30.33 in 10.0 mi NW 9.2 mph - N/A   Scattered Clouds
4:55 PM 17.6 °F 8.2 °F 8.6 °F 68% 30.34 in 10.0 mi NNW 6.9 mph - N/A   Mostly Cloudy
5:15 PM 17.6 °F 7.3 °F 8.6 °F 68% 30.34 in 10.0 mi NNW 8.1 mph - N/A   Mostly Cloudy
5:35 PM 14.0 °F 2.0 °F 6.8 °F 73% 30.35 in 10.0 mi NW 9.2 mph - N/A   Mostly Cloudy
5:55 PM 14.0 °F 2.9 °F 8.6 °F 79% 30.35 in 10.0 mi NNW 8.1 mph - N/A Snow Light Snow
6:15 PM 12.2 °F -1.0 °F 5.0 °F 73% 30.35 in 10.0 mi North 10.4 mph - N/A Snow Light Snow
6:35 PM 12.2 °F -1.0 °F 5.0 °F 73% 30.36 in 10.0 mi North 10.4 mph - N/A   Clear
6:55 PM 12.2 °F -2.5 °F 5.0 °F 73% 30.36 in 10.0 mi North 12.7 mph 18.4 mph N/A   Scattered Clouds
7:15 PM 12.2 °F -4.3 °F 5.0 °F 73% 30.36 in 10.0 mi North 16.1 mph 19.6 mph N/A   Scattered Clouds
7:35 PM 12.2 °F 2.9 °F 6.8 °F 79% 30.37 in 10.0 mi North 5.8 mph - N/A   Scattered Clouds
7:55 PM 10.4 °F 0.8 °F 3.2 °F 73% 30.37 in 10.0 mi North 5.8 mph - N/A   Clear
8:15 PM 10.4 °F 0.8 °F 5.0 °F 79% 30.36 in 10.0 mi North 5.8 mph - N/A   Clear
8:35 PM 10.4 °F 0.8 °F 5.0 °F 79% 30.35 in 10.0 mi North 5.8 mph - N/A   Clear
8:55 PM 5.0 °F -4.1 °F 1.4 °F 85% 30.34 in 10.0 mi North 4.6 mph - N/A   Clear
9:15 PM 10.4 °F 0.8 °F 5.0 °F 79% 30.33 in 10.0 mi North 5.8 mph - N/A   Clear
9:35 PM 6.8 °F -4.8 °F 1.4 °F 79% 30.33 in 10.0 mi North 6.9 mph - N/A   Clear
9:55 PM 10.4 °F 4.0 °F 3.2 °F 73% 30.32 in 10.0 mi NNE 3.5 mph - N/A   Clear
10:15 PM 10.4 °F 2.2 °F 3.2 °F 73% 30.32 in 10.0 mi NNE 4.6 mph - N/A   Clear
10:35 PM 10.4 °F 0.8 °F 1.4 °F 67% 30.31 in 10.0 mi NNE 5.8 mph - N/A   Clear
10:55 PM 10.4 °F - 1.4 °F 67% 30.31 in 10.0 mi Calm Calm - N/A   Clear
11:15 PM 5.0 °F - -0.4 °F 78% 30.31 in 10.0 mi Calm Calm - N/A   Clear
11:35 PM 3.2 °F - -2.2 °F 78% 30.32 in 10.0 mi Calm Calm - N/A   Clear
11:55 PM 3.2 °F - -0.4 °F 85% 30.32 in 10.0 mi Calm Calm - N/A   Clear